Location: Amsterdam
(30.7274°N, 84.4357°W)
Time: 02:40:08
(UTC+00:00)

Transit 2A Rocket - Pass Details

Date: 18 February 2026
Orbit: 583 x 900 km, 66.7° (Epoch: 12 March)

Event Time Altitude Azimuth Distance (km) Brightness Sun altitude
Rises 20:13:28 0° 184° (S) 3,405 9.0 35.8°
Reaches altitude 10° 20:16:01 10° 177° (S) 2,505 8.3 35.4°
Maximum altitude 20:21:28 41° 109° (ESE) 1,265 6.3 34.6°
Drops below altitude 10° 20:27:05 10° 41° (NE) 2,575 7.3 33.7°
Sets 20:29:43 0° 34° (NE) 3,511 7.9 33.3°
